Time,TemperatureF,DewpointF,PressureIn,WindDirection,WindDirectionDegrees,WindSpeedMPH,WindSpeedGustMPH,Humidity,HourlyPrecipIn,Conditions,Clouds,dailyrainin,SolarRadiationWatts/m^2,SoftwareType,DateUTC
2014-04-17 00:22:00,41.0,18.0,-100.00,SSW,202,3.0,5.0,39,0.00,,,0.00,0.000000,,2014-04-17 06:22:00,
2014-04-17 00:32:00,41.0,18.0,-100.00,SSW,202,3.0,5.0,39,0.00,,,0.00,0.000000,,2014-04-17 06:32:00,
2014-04-17 00:42:00,41.0,18.0,-100.00,SSW,202,3.0,5.0,39,0.00,,,0.00,0.000000,,2014-04-17 06:42:00,
2014-04-17 00:51:00,39.0,16.0,-100.00,South,184,2.0,7.0,38,0.00,,,0.00,0.000000,,2014-04-17 06:51:00,
2014-04-17 01:22:00,39.0,16.0,-100.00,South,184,2.0,7.0,38,0.00,,,0.00,0.000000,,2014-04-17 07:22:00,
2014-04-17 01:32:00,39.0,16.0,-100.00,South,184,2.0,7.0,38,0.00,,,0.00,0.000000,,2014-04-17 07:32:00,
2014-04-17 01:42:00,39.0,16.0,-100.00,South,184,2.0,7.0,38,0.00,,,0.00,0.000000,,2014-04-17 07:42:00,
2014-04-17 01:51:00,39.0,16.0,-100.00,SSW,199,4.0,5.0,38,0.00,,,0.00,0.000000,,2014-04-17 07:51:00,
2014-04-17 02:22:00,39.0,16.0,-100.00,SSW,199,4.0,5.0,38,0.00,,,0.00,0.000000,,2014-04-17 08:22:00,
2014-04-17 02:33:00,39.0,16.0,-100.00,SSW,199,4.0,5.0,38,0.00,,,0.00,0.000000,,2014-04-17 08:33:00,
2014-04-17 02:42:00,39.0,16.0,-100.00,SSW,199,4.0,5.0,38,0.00,,,0.00,0.000000,,2014-04-17 08:42:00,
2014-04-17 02:51:00,39.0,16.0,-100.00,SSE,156,3.0,5.0,38,0.00,,,0.00,0.000000,,2014-04-17 08:51:00,
2014-04-17 03:22:00,39.0,16.0,-100.00,SSE,156,3.0,5.0,38,0.00,,,0.00,0.000000,,2014-04-17 09:22:00,
2014-04-17 03:33:00,39.0,16.0,-100.00,SSE,156,3.0,5.0,38,0.00,,,0.00,0.000000,,2014-04-17 09:33:00,
2014-04-17 03:43:00,39.0,16.0,-100.00,SSE,156,3.0,5.0,38,0.00,,,0.00,0.000000,,2014-04-17 09:43:00,
2014-04-17 03:51:00,38.0,16.0,-100.00,North,-999,0.0,6.0,40,0.00,,,0.00,0.000000,,2014-04-17 09:51:00,
2014-04-17 04:23:00,38.0,16.0,-100.00,North,-999,0.0,6.0,40,0.00,,,0.00,0.000000,,2014-04-17 10:23:00,
2014-04-17 04:32:00,38.0,16.0,-100.00,North,-999,0.0,6.0,40,0.00,,,0.00,0.000000,,2014-04-17 10:32:00,
2014-04-17 04:42:00,38.0,16.0,-100.00,North,-999,0.0,6.0,40,0.00,,,0.00,0.000000,,2014-04-17 10:42:00,
2014-04-17 04:51:00,35.0,19.0,-100.00,North,-999,0.0,4.0,52,0.00,,,0.00,0.000000,,2014-04-17 10:51:00,
2014-04-17 05:22:00,35.0,19.0,-100.00,North,-999,0.0,4.0,52,0.00,,,0.00,0.000000,,2014-04-17 11:22:00,
2014-04-17 05:33:00,35.0,19.0,-100.00,North,-999,0.0,4.0,52,0.00,,,0.00,0.000000,,2014-04-17 11:33:00,
2014-04-17 05:42:00,35.0,19.0,-100.00,North,-999,0.0,4.0,52,0.00,,,0.00,0.000000,,2014-04-17 11:42:00,
2014-04-17 05:51:00,34.0,19.0,-100.00,North,-999,0.0,4.0,54,0.00,,,0.00,0.000000,,2014-04-17 11:51:00,
2014-04-17 06:22:00,34.0,19.0,-100.00,North,-999,0.0,4.0,54,0.00,,,0.00,0.000000,,2014-04-17 12:22:00,
2014-04-17 06:32:00,34.0,19.0,-100.00,North,-999,0.0,4.0,54,0.00,,,0.00,0.000000,,2014-04-17 12:32:00,
2014-04-17 06:42:00,34.0,19.0,-100.00,North,-999,0.0,4.0,54,0.00,,,0.00,0.000000,,2014-04-17 12:42:00,
2014-04-17 06:51:00,32.0,19.0,-100.00,North,-999,0.0,3.0,59,0.00,,,0.00,0.000000,,2014-04-17 12:51:00,
2014-04-17 07:22:00,32.0,19.0,-100.00,North,-999,0.0,3.0,59,0.00,,,0.00,0.000000,,2014-04-17 13:22:00,
2014-04-17 07:32:00,32.0,19.0,-100.00,North,-999,0.0,3.0,59,0.00,,,0.00,0.000000,,2014-04-17 13:32:00,
2014-04-17 07:42:00,32.0,19.0,-100.00,North,-999,0.0,3.0,59,0.00,,,0.00,0.000000,,2014-04-17 13:42:00,
2014-04-17 07:51:00,38.0,21.0,-100.00,SE,142,1.0,3.0,50,0.00,,,0.00,61.000000,,2014-04-17 13:51:00,
2014-04-17 08:22:00,38.0,21.0,-100.00,SE,142,1.0,3.0,50,0.00,,,0.00,61.000000,,2014-04-17 14:22:00,
2014-04-17 08:32:00,38.0,21.0,-100.00,SE,142,1.0,3.0,50,0.00,,,0.00,61.000000,,2014-04-17 14:32:00,
2014-04-17 08:42:00,38.0,21.0,-100.00,SE,142,1.0,3.0,50,0.00,,,0.00,61.000000,,2014-04-17 14:42:00,
2014-04-17 08:51:00,45.0,25.0,-100.00,NE,34,2.0,4.0,45,0.00,,,0.00,273.000000,,2014-04-17 14:51:00,
2014-04-17 09:22:00,45.0,25.0,-100.00,NE,34,2.0,4.0,45,0.00,,,0.00,273.000000,,2014-04-17 15:22:00,
2014-04-17 09:34:00,45.0,25.0,-100.00,NE,34,2.0,4.0,45,0.00,,,0.00,273.000000,,2014-04-17 15:34:00,
2014-04-17 09:44:00,45.0,25.0,-100.00,NE,34,2.0,4.0,45,0.00,,,0.00,273.000000,,2014-04-17 15:44:00,
2014-04-17 09:51:00,52.0,24.0,-100.00,North,359,2.0,5.0,33,0.00,,,0.00,499.000000,,2014-04-17 15:51:00,
2014-04-17 10:45:00,52.0,24.0,-100.00,North,359,2.0,5.0,33,0.00,,,0.00,499.000000,,2014-04-17 16:45:00,
2014-04-17 10:51:00,58.0,26.0,-100.00,NNE,25,3.0,7.0,29,0.00,,,0.00,705.000000,,2014-04-17 16:51:00,
2014-04-17 11:42:00,58.0,26.0,-100.00,NNE,25,3.0,7.0,29,0.00,,,0.00,705.000000,,2014-04-17 17:42:00,
2014-04-17 11:51:00,62.0,26.0,-100.00,NW,324,4.0,10.0,25,0.00,,,0.00,872.000000,,2014-04-17 17:51:00,
2014-04-17 12:22:00,62.0,26.0,-100.00,NW,324,4.0,10.0,25,0.00,,,0.00,872.000000,,2014-04-17 18:22:00,
2014-04-17 12:32:00,62.0,26.0,-100.00,NW,324,4.0,10.0,25,0.00,,,0.00,872.000000,,2014-04-17 18:32:00,
2014-04-17 12:43:00,62.0,26.0,-100.00,NW,324,4.0,10.0,25,0.00,,,0.00,872.000000,,2014-04-17 18:43:00,
2014-04-17 12:51:00,65.0,25.0,-100.00,SSE,163,6.0,13.0,22,0.00,,,0.00,979.000000,,2014-04-17 18:51:00,
2014-04-17 13:22:00,65.0,25.0,-100.00,SSE,163,6.0,13.0,22,0.00,,,0.00,979.000000,,2014-04-17 19:22:00,
2014-04-17 13:32:00,65.0,25.0,-100.00,SSE,163,6.0,13.0,22,0.00,,,0.00,979.000000,,2014-04-17 19:32:00,
2014-04-17 13:42:00,65.0,25.0,-100.00,SSE,163,6.0,13.0,22,0.00,,,0.00,979.000000,,2014-04-17 19:42:00,
2014-04-17 13:51:00,68.0,27.0,-100.00,SSW,195,7.0,19.0,21,0.00,,,0.00,1010.000000,,2014-04-17 19:51:00,
2014-04-17 14:22:00,68.0,27.0,-100.00,SSW,195,7.0,19.0,21,0.00,,,0.00,1010.000000,,2014-04-17 20:22:00,
2014-04-17 14:32:00,68.0,27.0,-100.00,SSW,195,7.0,19.0,21,0.00,,,0.00,1010.000000,,2014-04-17 20:32:00,
2014-04-17 14:42:00,68.0,27.0,-100.00,SSW,195,7.0,19.0,21,0.00,,,0.00,1010.000000,,2014-04-17 20:42:00,
2014-04-17 14:51:00,69.0,25.0,-100.00,SW,215,12.0,20.0,19,0.00,,,0.00,984.000000,,2014-04-17 20:51:00,
2014-04-17 15:21:00,69.0,25.0,-100.00,SW,215,12.0,20.0,19,0.00,,,0.00,984.000000,,2014-04-17 21:21:00,
2014-04-17 15:33:00,69.0,25.0,-100.00,SW,215,12.0,20.0,19,0.00,,,0.00,984.000000,,2014-04-17 21:33:00,
2014-04-17 15:43:00,69.0,25.0,-100.00,SW,215,12.0,20.0,19,0.00,,,0.00,984.000000,,2014-04-17 21:43:00,